Regional Weather Roundup
Issued by NWS Newport/Morehead, NC

Current Version | Previous Version | Graphics & Text | Print | Product List | Glossary On
Versions: 1 2 3 4 5 6 7 8 9 10 11 12 13 14 15 16 17 18 19 20 21 22 23 24 25 26 27 28 29 30 31 32 33 34 35 36 37 38 39 40 41 42 43 44 45 46 47 48 49 50
203 ASUS42 KMHX 260325 RWRMHX WEATHER ROUNDUP FOR EASTERN NORTH CAROLINA NATIONAL WEATHER SERVICE NEWPORT/MOREHEAD CITY NC 1100 PM EDT TUE APR 25 2017 NOTE: "FAIR" INDICATES FEW OR NO CLOUDS BELOW 12,000 FEET WITH NO SIGNIFICANT WEATHER AND/OR OBSTRUCTIONS TO VISIBILITY NCZ015>017-031-032-045>047-102-103-260400- NORTH COAST CITY SKY/WX TMP DP RH WIND PRES REMARKS EDENTON CLOUDY 66 61 85 CALM 29.69R ELIZABETH CITY CLOUDY 63 62 97 W5 29.68R KITTY HAWK CLOUDY 65 64 96 CALM 29.66R MANTEO MOCLDY 65 61 87 SW8 29.67R $$ NCZ045>047-081-094-103-104-260400- CENTRAL COAST CITY SKY/WX TMP DP RH WIND PRES REMARKS FRISCO CLEAR 68 63 84 W9 29.68R HAZE $$ NCZ095-097-098-100-101-260400- SOUTHERN COAST CITY SKY/WX TMP DP RH WIND PRES REMARKS BEAUFORT CLEAR 66 64 93 W16 29.70R CEDAR ISLAND NOT AVBL JACKSONVILLE CLEAR 62 61 96 W6 29.72R PINEY ISLAND CLEAR N/A N/A N/A W10 29.69R WILMINGTON CLEAR 62 60 93 W9 29.74R $$ NCZ011>013-027>030-043-044-078>080-089-090>093-098-260400- COASTAL PLAIN CITY SKY/WX TMP DP RH WIND PRES REMARKS AHOSKIE N/A 63 62 98 NW3 29.69S CLINTON MOCLDY 61 61 100 CALM 29.75R ELIZABETHTOWN MOCLDY 63 61 93 W3 29.75S GOLDSBORO CLEAR 62 62 100 W8 29.70R GREENVILLE CLEAR 63 63 100 W3 29.73R HAVELOCK NOT AVBL KENANSVILLE CLEAR 57 57 100 CALM 29.73S KINSTON PTCLDY 62 60 94 CALM 29.72R NEW BERN CLEAR 63 62 97 W7 29.71R RICHLANDS CLEAR 62 60 93 SW7 29.73R ROCKY MOUNT MOCLDY 62 61 96 NW5 29.72R WASHINGTON PTCLDY 62 61 97 SW3 29.69R WHITEVILLE CLOUDY 63 59 88 CALM 29.76R $$ AMZ130-135-150-152-154-156-158-170-250-252-270-ANZ085-086-088-633-658-670-260400- MARINE OBSERVATIONS STATION/POSITION TIME TEMP WIND PRES WAVE SWELL AIR SEA DIR/SP/G HT/PER HT/PER (UTC) (F) (DEG/KT/KT) (MB) (FT/S) (FT/S) CHESAPEAKE LIGHT NOT AVBL 64 E VA BEACH 0250 57 55 200/ 4/ 6 1004.9 9/10 8/10 DUCK 0300 66 58 220/ 4/ 5 1004.1 2 E DUCK 0300 60 N/A 6/ 8 2/11 OREGON INLET 0300 65 220/ 8/ 9 1004.4 13E OREGON INLT 0248 59 N/A 7/ 9 7/ 9 HATTERAS CG 0300 67 68 230/ 7/ 9 1004.8 DIAMOND BUOY 0250 72 78 240/ 17/ 21 1004.6 8/10 7/10 CAPE LOOKOUT 0300 66 260/ 15/ 18 1005.4 BEAUFORT LAB 0300 65 66 250/ 7/ 12 1005.1 30 SE NEW RVR IN 0308 66 280/ 16/ 21 1006.6 30 SE NEW RVR IN 0313 71 N/A 7/10 2/11 27 SE WRIGHTSVLE 0308 66 71 270/ 16/ 21 1006.1 5 SE WRIGHTSVLE 0308 64 70 270/ 16/ 21 1007.1 225 S CAPE HAT 0250 73 76 230/ 17/ 21 1009.2 9/ 8 3/14 41 SE CHARLESTON 0310 72 72 240/ 14/ 16 1008.5 $$

USA.gov is the U.S. government's official web portal to all federal, state and local government web resources and services.